Theta_e
331 330 326 321 325 328 333 329 331 328 325 325 323 331 334 334 335 340 332 332 331 333 330 329 328 327 325 324 319 315 314 314 313 312 312 315 320 321 323 323 323 323 322 322 323 322 320 316 313
331 330 322 324 324 333 332 327 331 328 330 327 332 333 334 336 333 333 331 332 332 332 331 328 327 326 325 324 323 316 314 314 314 313 312 314 319 321 321 322 324 323 324 322 322 320 319 315 315
331 328 325 324 326 331 330 327 330 333 330 330 335 335 334 334 333 332 332 332 333 333 331 328 327 326 325 325 323 318 315 315 314 313 312 314 320 321 320 321 323 323 323 322 321 320 317 319 322
330 331 324 322 325 325 328 329 333 332 333 334 334 336 335 334 332 333 333 334 333 333 331 327 327 326 325 325 324 321 315 315 314 313 313 313 315 317 320 321 321 322 321 321 320 320 319 322 321
330 331 331 325 322 324 327 333 332 333 333 334 334 335 334 334 333 333 333 333 332 332 329 327 326 325 325 325 323 320 316 315 314 313 312 311 311 317 320 320 321 321 320 320 319 320 321 319 321
331 329 334 332 324 325 332 333 331 333 333 333 334 334 334 334 333 334 333 333 332 331 328 326 326 325 325 325 322 317 316 315 314 314 313 312 311 312 316 320 320 320 318 319 319 317 320 320 322
331 333 334 334 328 328 333 331 332 333 333 334 334 335 334 334 333 333 332 331 332 329 326 326 326 325 325 324 321 317 316 315 315 314 313 312 312 312 312 316 319 319 317 319 319 317 318 320 321
327 328 328 330 328 329 330 329 331 333 334 333 333 335 334 333 334 333 332 331 330 327 327 326 326 324 324 323 319 317 316 315 315 314 313 312 312 312 312 313 318 319 317 319 318 316 316 319 320
322 329 331 329 329 327 327 329 329 330 333 333 332 334 333 333 330 332 331 328 327 326 326 325 325 324 324 322 318 316 316 315 315 315 314 313 312 312 312 312 314 319 317 317 315 314 315 318 318
325 333 331 321 323 323 327 329 329 331 332 332 332 332 333 331 330 331 330 329 327 326 326 325 325 324 323 323 318 317 317 317 316 316 314 313 312 311 311 312 314 315 316 315 314 314 315 316 317
325 332 321 316 317 324 327 328 329 331 332 332 333 331 332 330 330 331 330 328 327 326 326 325 324 323 322 322 320 318 318 318 318 317 316 315 313 312 311 311 314 316 316 317 314 315 314 315 315
320 319 317 317 319 323 326 328 328 330 327 328 331 331 332 330 330 331 330 329 329 326 326 325 324 323 322 321 321 320 319 318 318 317 317 316 314 312 311 312 314 316 317 317 316 314 314 314 315
318 317 316 316 318 323 324 326 327 328 324 326 331 330 332 331 331 332 331 330 327 327 325 325 324 323 322 322 321 321 320 319 319 318 317 316 314 313 312 311 314 318 318 315 315 314 314 313 313
318 315 316 317 318 318 323 322 323 323 326 329 331 330 331 331 331 331 331 330 329 326 325 325 324 323 322 322 321 321 321 321 320 318 316 316 314 313 312 313 313 315 314 314 313 312 311 311 311
314 316 317 316 316 316 317 320 321 322 327 329 329 329 330 331 331 331 330 330 329 328 326 325 325 324 324 322 322 322 321 321 320 319 317 315 315 314 311 312 312 314 314 314 313 312 312 312 311
320 319 324 318 317 315 318 326 318 319 326 327 328 330 330 330 330 330 330 330 330 330 328 326 325 325 324 323 322 322 322 321 320 320 319 316 315 314 311 311 312 312 311 312 313 312 312 312 311
324 330 330 321 317 318 321 329 319 317 321 324 327 328 328 329 329 329 329 329 330 330 329 329 327 325 324 323 323 322 322 321 320 320 319 317 315 314 311 310 310 310 311 311 312 313 312 312 311
330 332 331 328 322 320 322 326 320 319 319 321 322 323 325 327 327 328 328 329 329 329 329 329 327 326 325 325 324 323 323 322 321 320 319 317 314 313 312 309 309 309 310 311 311 312 312 312 312
328 330 330 325 320 323 326 325 323 322 321 320 322 321 321 321 322 324 326 327 326 327 328 328 327 326 326 325 324 324 323 322 322 320 319 317 314 312 312 312 309 308 308 309 310 310 310 311 311
327 328 326 321 317 321 321 318 315 315 316 316 316 318 318 318 319 319 320 321 323 325 326 326 326 325 324 324 324 323 321 322 321 320 318 317 314 312 312 312 311 309 308 308 310 309 309 310 311
321 327 324 324 317 316 316 316 317 315 314 315 315 315 315 315 315 315 315 316 317 319 321 322 322 322 321 320 321 321 321 320 319 318 318 317 315 313 313 312 312 311 308 308 308 309 308 309 309
322 319 319 318 318 322 316 322 318 317 315 313 312 312 311 311 311 313 313 313 314 314 315 317 317 317 320 320 320 319 318 317 315 314 314 315 315 314 314 313 312 311 310 308 307 307 307 307 309
317 316 316 316 316 316 316 324 318 316 314 312 311 311 311 311 312 313 312 311 312 313 314 313 313 313 313 315 316 316 316 315 314 314 314 314 314 315 314 313 313 312 311 309 307 306 307 307 307
314 315 314 314 315 321 315 318 319 316 313 312 310 310 311 312 313 311 310 310 309 309 309 310 312 314 313 313 313 314 314 313 313 314 314 313 313 314 314 313 312 312 311 310 307 307 306 306 306
315 315 317 319 321 317 314 315 316 312 312 311 310 310 310 310 309 307 306 306 306 307 307 308 309 310 311 313 314 313 313 313 313 313 313 313 313 313 313 312 312 311 310 310 308 306 306 305 305
314 313 313 313 315 314 312 314 313 310 310 309 309 309 309 308 307 307 306 305 306 306 306 307 307 308 309 310 311 312 312 312 312 312 312 312 312 312 312 311 311 310 310 309 309 307 306 304 304
314 314 312 313 311 313 311 311 310 309 309 309 309 309 308 307 307 306 306 305 305 305 306 306 306 306 306 307 309 309 310 311 311 311 311 311 311 311 311 310 310 310 309 308 307 307 306 304 303
312 312 315 314 315 312 310 311 313 310 310 310 309 309 308 307 306 306 305 304 304 305 305 304 305 305 305 305 306 306 307 308 309 310 310 310 310 310 309 310 309 309 309 308 307 307 307 306 303
312 313 312 313 313 310 309 309 312 311 311 310 309 307 308 306 305 305 304 304 303 303 302 301 302 302 302 302 303 303 304 304 304 305 307 308 309 309 309 309 308 308 308 308 307 307 306 306 305
309 313 312 309 312 312 312 310 309 312 310 308 308 308 307 305 304 304 303 302 300 298 298 298 298 298 299 299 300 300 300 300 301 303 303 304 304 306 308 308 308 308 307 306 307 306 306 305 305
Wind_Speed
4 4 0 4 5 6 10 4 2 7 8 4 9 1 6 12 8 4 14 13 16 13 9 8 4 7 8 10 9 9 10 11 11 12 11 10 10 9 11 9 10 10 10 10 11 9 11 11 12
7 2 1 5 5 10 7 6 8 9 9 11 9 6 4 6 7 12 14 15 14 12 11 8 4 6 8 9 9 8 9 11 11 11 11 8 9 10 8 10 10 10 11 10 8 10 12 12 13
6 1 5 4 6 10 8 9 10 10 12 10 5 5 3 4 11 13 15 17 14 12 10 7 3 5 8 11 11 9 10 11 11 10 9 8 9 9 9 9 8 8 7 8 7 10 11 14 12
7 5 6 5 11 3 4 8 16 12 7 4 5 8 8 7 11 10 18 15 13 11 9 6 1 5 8 11 11 9 10 10 10 10 9 7 6 6 9 8 6 6 5 6 6 9 10 9 8
4 5 7 8 8 2 3 11 18 14 9 9 4 6 11 9 10 17 17 14 12 10 7 5 0 3 7 9 10 7 8 8 8 9 9 7 5 5 6 5 6 5 5 5 7 8 9 8 10
4 5 7 10 9 4 7 13 13 11 11 7 8 11 8 8 16 15 14 13 11 10 8 5 2 3 6 9 7 6 7 7 8 9 10 8 7 6 5 6 5 3 4 6 7 7 7 10 11
4 5 11 13 10 8 8 11 11 10 11 8 11 6 6 13 16 15 13 11 10 9 6 3 1 4 7 10 7 6 7 8 9 10 11 9 7 6 5 4 4 2 4 5 5 4 5 10 12
3 4 3 6 11 6 12 10 5 10 10 8 5 5 6 20 21 16 13 11 11 9 6 2 3 5 9 9 6 6 6 8 9 11 11 10 8 7 4 1 3 1 3 4 4 1 5 8 9
1 5 8 8 11 8 15 9 6 2 7 6 4 4 5 25 23 17 15 13 10 8 5 4 3 6 9 9 7 6 7 8 10 10 11 10 9 8 7 3 1 1 1 1 0 3 4 7 7
3 8 9 3 4 8 17 11 11 7 9 6 7 5 15 26 23 18 16 14 12 9 7 5 6 7 9 8 7 7 8 9 9 10 10 10 9 8 6 4 1 3 3 2 2 0 2 4 3
3 4 4 2 1 10 16 10 7 6 7 5 9 11 16 22 20 17 16 13 11 11 8 7 7 8 9 8 7 7 8 9 10 10 11 11 10 9 7 5 3 4 4 5 2 1 4 6 7
1 2 4 3 3 10 12 13 7 9 5 2 1 12 17 21 22 18 16 13 13 10 10 9 9 9 8 8 7 8 9 10 11 11 11 12 10 9 6 3 3 2 5 4 4 7 5 6 5
2 1 2 3 7 7 9 7 4 7 2 3 7 11 15 19 21 16 14 13 14 12 11 10 11 10 9 8 9 8 10 11 12 13 13 12 10 9 7 4 1 4 5 5 8 6 7 5 4
6 1 5 4 6 6 7 5 4 4 3 6 9 9 11 17 19 16 14 13 13 14 12 12 11 10 11 10 10 11 11 12 13 14 14 13 11 9 8 5 3 4 7 8 7 7 5 6 5
14 5 6 5 2 3 2 5 4 4 6 8 8 9 12 15 18 19 15 12 12 12 17 13 14 14 13 13 14 14 15 15 16 16 16 15 13 12 9 6 2 7 8 10 11 11 10 10 9
3 4 5 3 1 1 3 8 7 4 6 7 8 8 9 13 17 17 15 13 12 13 18 16 16 17 16 16 15 16 18 18 17 17 19 18 15 14 10 7 4 6 9 10 15 15 14 14 13
4 5 9 5 1 3 3 7 5 2 5 7 7 9 10 11 13 15 17 17 14 17 17 20 18 19 18 19 19 20 20 19 19 19 18 21 18 15 10 9 8 8 8 11 15 19 18 18 16
5 9 9 9 3 2 2 1 4 3 4 6 7 9 9 10 12 13 14 14 15 20 21 21 21 21 21 22 24 24 23 21 22 21 19 21 19 15 11 11 11 10 10 12 15 21 21 22 21
9 8 10 7 4 2 2 2 6 6 6 9 10 10 9 9 9 11 13 16 18 21 21 21 22 22 24 24 24 24 25 24 23 21 21 20 20 18 14 12 12 12 13 13 17 21 22 26 23
6 13 5 5 4 2 3 6 7 10 7 8 8 8 9 8 9 11 12 14 17 19 21 23 23 22 23 23 23 22 22 24 23 23 22 22 18 18 17 17 15 14 14 15 19 24 23 28 28
5 6 8 5 4 2 2 6 8 12 15 15 15 11 9 9 7 6 7 10 13 14 15 17 19 20 18 21 20 22 26 25 25 25 25 22 20 19 20 20 19 17 17 18 19 24 25 27 27
5 6 8 9 6 2 3 4 7 9 12 14 14 13 11 11 9 8 8 8 6 8 13 16 18 20 21 24 23 23 25 24 25 24 23 23 22 22 23 23 22 21 19 21 22 25 27 27 31
6 5 8 4 2 4 4 1 6 2 10 13 17 19 17 13 14 19 24 23 21 20 13 10 14 19 21 23 23 23 25 25 23 24 27 24 24 25 26 26 26 24 23 23 24 26 28 30 32
12 9 7 2 1 2 2 2 5 2 7 11 15 17 18 18 19 22 24 24 24 24 22 18 14 10 12 17 21 24 25 25 25 26 29 28 27 28 29 28 28 27 26 25 26 27 30 32 33
1 3 2 2 1 2 1 1 6 9 12 11 10 12 14 17 18 20 21 21 20 18 18 18 17 14 11 11 15 20 24 26 28 28 29 32 31 30 31 30 31 30 29 28 28 29 31 33 36
3 2 1 1 3 4 2 4 6 9 10 6 6 8 12 14 16 16 18 20 18 16 13 14 15 16 15 15 16 19 22 26 29 30 31 32 34 33 30 32 32 33 32 32 31 32 32 34 37
2 1 2 4 1 1 3 5 3 7 9 5 5 6 7 12 15 14 14 16 15 14 14 15 16 17 18 19 20 21 23 26 28 30 32 33 34 36 34 33 33 35 35 36 35 34 34 34 36
3 3 2 1 3 3 4 4 6 15 16 8 5 3 6 10 12 11 11 13 15 16 18 18 19 19 20 21 22 24 26 27 29 32 34 35 35 35 37 35 33 34 37 37 37 37 35 36 36
2 1 1 2 2 2 1 3 8 17 16 10 4 1 8 11 12 9 10 13 13 14 16 18 20 21 22 24 25 26 26 27 29 31 33 35 37 38 39 39 36 35 36 37 39 39 38 37 38
3 2 4 3 4 1 1 4 5 13 18 7 3 2 9 9 10 9 11 11 11 14 19 20 22 23 26 28 30 30 31 30 29 29 30 31 35 37 39 39 41 40 38 37 40 41 40 40 39
Wind_Direction
341 345 179 219 225 237 214 163 50 138 138 97 120 91 70 31 8 46 139 141 143 157 158 130 82 18 12 21 20 17 13 14 14 15 15 31 46 50 69 51 39 29 38 31 49 43 44 51 67
346 23 210 237 247 201 210 131 175 149 118 135 112 114 92 80 66 126 140 144 145 147 134 130 88 19 14 18 17 14 13 13 10 14 16 40 47 53 64 53 46 32 45 35 43 47 49 60 66
334 225 239 226 222 230 206 174 132 127 138 155 112 55 73 77 120 131 148 147 152 135 147 134 91 13 6 7 7 11 10 9 9 16 17 35 49 51 41 65 55 49 45 43 24 47 57 65 65
350 200 234 243 216 82 36 151 144 141 149 164 132 97 88 108 128 146 148 143 140 135 165 143 100 0 356 358 0 5 8 8 9 13 20 27 48 65 65 50 67 41 37 70 19 49 65 80 90
327 255 225 226 222 84 192 140 155 153 153 153 159 111 113 128 129 146 144 149 144 145 167 165 146 331 341 349 353 2 6 5 5 10 15 22 27 58 77 64 76 31 26 50 51 59 66 78 90
292 273 221 199 184 158 135 154 163 158 149 137 135 125 121 145 146 148 151 152 147 155 164 169 198 310 323 336 346 359 0 359 3 8 10 18 26 40 76 72 75 31 37 59 62 59 75 98 103
264 254 238 210 165 166 163 166 171 162 161 161 141 127 127 155 158 154 153 153 150 154 169 169 245 306 325 337 342 352 358 1 2 5 9 13 19 23 34 90 81 2 33 79 61 61 92 111 111
265 261 244 204 190 160 162 162 161 171 141 129 162 173 165 170 162 159 157 154 160 168 180 190 276 322 330 336 336 349 358 0 1 6 11 13 14 12 11 16 104 13 47 103 103 41 82 112 117
257 248 214 195 197 147 165 160 156 195 138 163 159 92 130 175 166 161 168 168 182 194 212 234 265 307 323 327 333 345 355 359 3 6 9 11 9 358 354 1 220 197 324 130 122 47 92 131 141
259 241 213 47 66 168 173 180 155 162 159 178 167 108 156 169 168 172 176 179 191 211 227 246 268 296 316 327 335 346 351 357 357 0 3 2 1 360 360 355 289 261 270 301 327 348 136 155 186
217 261 100 109 186 168 160 161 167 175 184 190 204 175 167 174 174 183 187 193 209 218 233 247 265 293 311 326 333 340 344 347 351 355 357 356 357 1 2 348 320 303 289 311 277 164 216 209 208
185 274 336 136 120 152 164 147 164 188 67 117 205 183 175 182 182 191 195 196 199 227 237 244 260 286 309 326 336 338 342 346 347 347 351 352 350 352 352 345 310 268 249 231 235 251 245 236 236
34 8 68 121 125 134 136 146 124 162 94 162 149 165 181 189 193 196 204 205 228 232 240 247 258 280 297 319 322 330 334 340 340 341 344 345 340 337 338 332 301 262 253 251 252 254 242 237 219
159 12 130 133 128 122 147 135 168 152 146 145 166 180 193 201 199 200 207 210 212 230 240 249 263 280 293 300 307 318 323 328 331 334 337 336 334 331 321 322 315 292 248 238 258 238 233 216 216
127 120 187 114 81 95 129 156 185 131 155 164 183 192 194 209 209 212 217 219 225 228 235 241 262 276 284 299 304 308 317 322 325 327 326 327 330 323 310 308 305 268 263 241 244 244 266 272 277
204 185 178 102 178 83 239 157 127 162 180 192 196 206 216 218 219 219 222 228 230 235 243 246 254 268 271 276 286 290 301 308 308 315 324 320 323 323 305 294 273 257 272 251 249 260 261 265 271
205 170 178 136 77 132 243 103 128 173 217 232 224 222 225 231 228 231 232 236 234 241 250 254 256 258 264 268 277 283 288 297 297 303 311 317 314 318 300 284 267 263 258 251 253 249 253 256 258
162 161 158 143 125 188 146 199 137 189 228 255 257 247 239 242 245 243 245 238 237 246 253 254 262 265 269 273 276 276 283 290 289 291 300 306 311 313 313 286 274 265 245 262 246 255 253 251 247
145 135 123 100 83 249 188 311 320 300 262 278 272 268 265 263 265 259 249 245 245 249 251 260 264 262 264 268 269 277 277 280 285 287 292 295 306 303 306 303 285 272 256 240 258 255 258 256 243
129 117 101 96 77 294 77 27 57 36 13 340 318 308 301 290 279 269 260 257 253 254 258 260 259 263 266 267 272 274 280 283 285 286 288 285 289 298 302 305 302 280 263 253 242 255 254 251 250
39 147 151 122 125 92 333 88 76 80 62 57 60 56 42 29 5 326 283 274 269 267 268 261 262 260 259 266 269 274 278 283 284 286 283 280 280 285 288 291 297 297 271 256 245 254 250 252 254
115 69 109 127 173 168 348 132 88 110 67 40 34 39 33 25 20 14 19 5 325 288 264 263 264 266 262 261 267 270 278 280 285 282 279 280 271 274 280 282 286 289 281 260 252 249 250 248 249
113 101 92 88 139 174 31 129 137 175 53 58 61 52 44 43 48 58 60 52 43 37 17 325 287 271 268 265 265 264 267 273 272 269 272 278 274 269 270 273 279 280 284 266 254 248 249 246 243
126 104 85 92 237 135 52 318 143 66 102 87 66 57 58 63 64 60 52 45 37 31 28 27 20 352 304 281 272 267 269 271 271 273 273 279 278 273 270 271 274 275 278 275 260 253 252 254 246
103 165 113 138 155 80 45 275 76 113 119 91 76 63 68 67 56 42 33 27 22 17 13 9 6 3 349 316 289 277 275 275 275 275 271 279 280 278 277 277 276 275 279 281 273 262 257 254 253
59 337 322 168 167 131 182 153 135 124 137 107 77 84 73 49 34 26 14 12 11 11 9 6 359 346 337 323 307 292 284 282 283 282 280 279 283 284 282 275 274 273 273 274 276 268 261 258 254
96 47 8 96 36 220 126 107 125 184 177 184 126 104 53 21 17 11 11 7 7 6 0 348 338 329 322 315 308 302 297 290 286 286 286 284 284 286 286 281 276 275 273 273 273 273 270 264 261
5 89 153 319 145 185 151 218 161 188 190 193 148 101 16 8 9 11 16 8 0 351 343 338 333 328 322 317 315 310 304 298 294 291 287 283 285 285 287 286 281 276 276 274 273 274 277 273 268
154 284 10 60 352 170 193 222 156 182 182 188 154 358 3 1 4 7 5 3 4 2 1 356 349 343 338 335 331 326 320 313 305 299 295 291 289 286 285 286 285 280 274 273 272 272 273 273 271
280 226 213 219 190 194 8 259 162 174 181 171 199 287 344 355 12 15 4 4 4 358 355 352 348 341 335 330 327 326 326 324 320 316 311 303 295 290 285 283 284 283 278 273 269 269 269 270 270